Regional Weather Roundup
Issued by NWS

Home | Current Version | Previous Version | Graphics & Text | Print | Product List | Glossary On
Versions: 1 2 3 4 5 6 7 8 9 10 11 12 13 14 15 16 17 18 19 20 21 22 23 24 25 26 27
000
ASUS45 KCYS 221810
RWRWY

WYOMING REGIONAL WEATHER ROUNDUP
NATIONAL WEATHER SERVICE CHEYENNE WY
1200 PM MDT WED OCT 22 2014

NOTE:  "FAIR" INDICATES FEW OR NO CLOUDS BELOW 12,000 FEET
WITH NO SIGNIFICANT WEATHER AND/OR OBSTRUCTIONS TO VISIBILITY.

WYZ001-221900-
YELLOWSTONE NATIONAL PARK

CITY           SKY/WX    TMP DP  RH WIND       PRES   REMARKS
LK YELLOWSTONE   N/A     36  27  69 VRB5      30.22R WCI  32
6HR MIN TEMP:  27; 6HR MAX TEMP:  36;

W YELLOWSTONE  NOT AVBL

$$
WYZ002>013-054>058-071-098>099-221900-
NORTHERN WYOMING

CITY           SKY/WX    TMP DP  RH WIND       PRES   REMARKS
JACKSON        SUNNY     46  27  46 S10G17    30.20F
CODY           SUNNY     55  25  30 W14G21    30.07S
GREYBULL       SUNNY     56  26  31 SE7       30.08F
6HR MIN TEMP:  30; 6HR MAX TEMP:  56;

WORLAND        SUNNY     54  25  32 CALM      30.09S
6HR MIN TEMP:  26; 6HR MAX TEMP:  55; 6HR PCP: TRACE;

SHERIDAN       SUNNY     58  27  30 E8        30.04S
6HR MIN TEMP:  32; 6HR MAX TEMP:  58;

BUFFALO        SUNNY     54  27  35 S16       30.06F
6HR MIN TEMP:  33; 6HR MAX TEMP:  54;

GILLETTE       SUNNY     54  27  35 NW12      30.07F
6HR MIN TEMP:  29; 6HR MAX TEMP:  54;

HULETT         FAIR      55  28  35 W10       30.05
NEWCASTLE      FAIR      54  27  35 NW14      30.07

$$
WYZ014>020-022>026-101>103-221900-
CENTRAL WYOMING

CITY           SKY/WX    TMP DP  RH WIND       PRES   REMARKS
BIG PINEY      SUNNY     43  24  47 SE5       30.23F
6HR MIN TEMP:  18; 6HR MAX TEMP:  43;

PINEDALE       CLEAR     41  28  60 CALM      30.23F
DUBOIS         FAIR      45  18  33 W21G29    30.14S
LANDER         SUNNY     54  22  28 VRB3      30.11F
6HR MIN TEMP:  31; 6HR MAX TEMP:  54;

RIVERTON       SUNNY     52  23  32 VRB5      30.13S
6HR MIN TEMP:  34; 6HR MAX TEMP:  52;

CASPER         SUNNY     56  21  25 W16G25    30.10F
6HR MIN TEMP:  31; 6HR MAX TEMP:  56;

DOUGLAS        SUNNY     55  24  30 VRB3      30.10F
6HR MIN TEMP:  36; 6HR MAX TEMP:  56;


$$
WYZ021-027>030-104>119-221900-
SOUTHERN WYOMING

CITY           SKY/WX    TMP DP  RH WIND       PRES   REMARKS
EVANSTON       SUNNY     49  23  36 VRB6      30.24S
6HR MIN TEMP:  27; 6HR MAX TEMP:  49;

KEMMERER       CLEAR     45  19  36 SW12G18   30.25R
FORT BRIDGER   FAIR      48  26  43 W6        30.27S
ROCK SPRINGS   SUNNY     44  29  55 W7        30.24S
6HR MIN TEMP:  30; 6HR MAX TEMP:  44;

DIXON          MOCLDY    48  39  70 CALM      30.26S
RAWLINS        SUNNY     47  27  45 W17G24    30.21S
6HR MIN TEMP:  34; 6HR MAX TEMP:  47;

SARATOGA       FAIR      50  34  53 W12G21    30.22S
LARAMIE        MOSUNNY   53  31  42 W16       30.16S
6HR MIN TEMP:  33; 6HR MAX TEMP:  53;

CHEYENNE       SUNNY     61  35  37 W14G21    30.12F
6HR MIN TEMP:  46; 6HR MAX TEMP:  61;

TORRINGTON     SUNNY     60  30  32 W10       30.08F
6HR MIN TEMP:  46; 6HR MAX TEMP:  60;

PINE BLUFFS    FAIR      59  36  41 N12       30.11S

$$



USA.gov is the U.S. government's official web portal to all federal, state and local government web resources and services.